IRIDIUM 61 [-]

Last updated on July 23, 2019, 4:12 a.m. UTC

1 25263U 98018B   19204.12940258  .11331516 -11293-5  31063-3 0  9990
2 25263  86.4080 356.0425 0052251  58.9154 302.3270 16.38168229117280

Satellite is not in orbit.